ATLAS 5 CENTAUR DEB, 44678

Orbit data source: Space-Track

ATLAS 5 CENTAUR DEB, 44678 is space debris in HEO originally from a launch on Wed, 17 Oct 2018 UTC launched from the Air Force Eastern Test Range (AFETR). Debris objects in space refer to the collection of defunct objects orbiting the Earth. Examples of debris include non-operational satellites, rocket bodies, and fragments generated from explosions, collisions, or faulty payload assembly.

Loading next visibility...
ATLAS 5 CENTAUR DEB details
Identifier
44678, 2018-079AQ
Orbit
HEO
Last TLE update3 days ago
Origin
Flag of USULA (US)
ManufacturerULA Decatur
MissionSpacecraft
Bus & MotorUnknown
MassUnknown
Launch date (UTC)
2018-10-17 (6 years ago)
Launch vehicleUnknown
Launch site
Air Force Eastern Test Range (AFETR)
Object type
Payload
Rocket body
Debris
Shape & HBRUnknown
Radar Cross SectionRCS unknown

Expand to show TLE details & history

TLE from 3 days ago
0 ATLAS 5 CENTAUR DEB
1 44678U 18079AQ  24358.48029807 -.00000122  00000-0  00000-0 0  9990
2 44678  12.6863  80.6782 4654839 223.4016  88.6518  1.82234060 41215
Epoch: 2024-12-23T11:31Z
Definitive object data (Epoch: 2024-12-23T11:31:37.753Z)
Latitude0.00001°
Longitude175.23335°
Altitude27,153.549 km
Speed3.114 km/s
True Right ascension05h 22m 34s
True Declination0° 00' 00"
Sunlit
Object was in daylight at TLE epoch
Visualization TLE readout
Latitude12.70279°
Longitude-97.25247°
Altitude26,959.948 km
Speed3.136 km/s
Apparent Right ascension11h 10m 07s
Apparent Declination6° 42' 33"
Sunlit
Object is in daylight
Visualization observer readout
Local Sidereal Time11:26:45
Azimuth187.517° SSW
Elevation56.584°
Doppler factor1
Orbital elements
Apogee altitude35,116.826 km
Perigee altitude8,756.609 km
Semi-major axis28,314.855 km
Eccentricity0.4654839
Inclination12.6863°
RAAN80.6782°
Arg. of periapsis223.4016°
True anomaly136.5511°
Mean anomaly88.6518°
Eccentric anomaly113.17074°
Mean motion0.45553 °/min
BSTARUnknown
Orbital period790.28 mins
Loading maneuver chart data...

ATLAS 5 CENTAUR DEB Visibility forecast

Observer location: undefined°, undefined

Span
Click to sort rows by Start time (UTC) header in descending order
Start Az.
Max El. time (UTC)
Max El. Az.
Max El.
End time (UTC)
End Az.
157 mins2024-12-26 12:05:18.515Z187.512° SSW2024-12-26 12:05:18.515Z187.512° SSW39.844°2024-12-26 14:42:18.515Z120.802° SE
370 mins2024-12-27 05:55:18.515Z229.519° WSW2024-12-27 10:08:18.515Z227.429° WSW33.089°2024-12-27 12:05:18.515Z238.66° WSW
|